Home > Weather > Stephenville > Past weeks

Flag for Canada Past Weather in Stephenville, Newfoundland and Labrador, Canada — Yesterday and Last 2 Weeks

Now
63 °F

Sprinkles. Overcast.


Feels Like: 63 °F
Forecast: 62 / 70 °F
Wind: 8 mph from East

Location: Stephenville

Current Time: Jul 27, 2016 at 5:25:22 AM

Latest Report: Jul 27, 2016 at 4:30 AM


Visibility: 12 mi

Pressure: 29.83 "Hg

Humidity: 94%

Dew Point: 61 °F

Location of StephenvilleLocation

Past Weather in Stephenville — Graph

°F

Stephenville Temperature Yesterday

Maximum temperature yesterday: 73 °F (at 11:30 AM)
Minimum temperature yesterday: 54 °F (at 3:30 AM)
Average temperature yesterday: 65 °F

High & Low Weather Summary for the Past Weeks

 TemperatureHumidityPressure
High77 °F (Jul 17, 4:30 PM)100% (Jul 15, 10:30 AM)30.16 "Hg (Jul 15, 10:30 AM)
Low45 °F (Jul 13, 5:30 AM)47% (Jul 17, 4:30 PM)29.62 "Hg (Jul 23, 12:30 PM)
Average62 °F86%29.85 "Hg
* Reported Jul 12 3:30 AM — Jul 27 3:30 AM, Stephenville, Weather by CustomWeather, © 2016

Note: Actual official high and low records may vary slightly from our data, if they occured in-between our weather recording intervals... More about our weather records

Advertising

Stephenville Weather History for the Previous 24 Hours

Scroll right to see more
 ConditionsComfort  
Time TempWeatherWind HumidityBarometerVisibility
3:30 AM
Wed, Jul 27
63 °FSprinkles. Overcast.7 mph94%29.83 "Hg15 mi
2:30 AM63 °FSprinkles. Fog.10 mph94%29.84 "Hg3 mi
1:30 AM63 °FSprinkles. Mostly cloudy.12 mph94%29.84 "Hg12 mi
12:30 AM63 °FOvercast.9 mph94%29.86 "Hg15 mi
11:30 PM
Tue, Jul 26
63 °FOvercast.8 mph94%29.86 "Hg15 mi
10:30 PM63 °FOvercast.8 mph94%29.86 "Hg15 mi
10:17 PM64 °FPassing clouds.8 mph94%29.87 "Hg15 mi
9:30 PM64 °FLight rain. Fog.5 mph88%29.87 "Hg4 mi
8:30 PM64 °FSprinkles. Partly sunny.8 mph88%29.86 "Hg15 mi
7:30 PM66 °FSprinkles. Partly sunny.13 mph88%29.85 "Hg12 mi
6:30 PM68 °FMostly cloudy.8 mph83%29.85 "Hg15 mi
5:30 PM70 °FMostly cloudy.7 mph78%29.85 "Hg15 mi
4:30 PM70 °FSprinkles. Mostly cloudy.9 mph78%29.85 "Hg15 mi
3:30 PM73 °FMostly cloudy.3 mph65%29.84 "Hg15 mi
2:30 PM72 °FPartly sunny.3 mph73%29.83 "Hg15 mi
1:30 PM68 °FLight rain. Partly sunny.3 mph83%29.84 "Hg15 mi
12:30 PM73 °FPartly sunny.8 mph61%29.85 "Hg15 mi
11:30 AM73 °FBroken clouds.10 mph57%29.86 "Hg15 mi
10:30 AM72 °FPartly sunny.13 mph57%29.86 "Hg15 mi
9:30 AM68 °FPartly sunny.15 mph56%29.87 "Hg15 mi
8:30 AM66 °FBroken clouds.14 mph60%29.88 "Hg15 mi
7:30 AM63 °FBroken clouds.12 mph64%29.88 "Hg15 mi
6:30 AM61 °FBroken clouds.9 mph68%29.88 "Hg15 mi
5:30 AM59 °FPassing clouds.8 mph77%29.88 "Hg15 mi
Weather by CustomWeather, © 2016

See weather overviewHow to use our weather pages